BEIDOU-3S M1S (C57)

Last updated on Sat Aug 15 2026 00:03:26 GMT+0000 (Coordinated Universal Time)

1 40749U 15037B 26225.97739892 -.00000062 00000+0 00000+0 0 9998 2 40749 54.8130 300.0407 0002140 59.0663 301.0260 1.86254878 75202
UTC large
Height (km)
Speed (km/s)
/
Latitude / Longitude
Inclination (degrees)
Orbital Period (minutes)
Azimuth
Elevation
Range (km)
Doppler Factor

Next 0 passes for location: London (51.5072 / 0.1276)

No passes found over London.
BEIDOU-3S M1S (C57)